Presure
175 178 172 181 172 178 170 158 161 172 169 176 168 177 167 164 162 169 173 161 158 168 160 168 168 166 165 169 169 168 173 166 165 165 164 167 174 171 172 170 172 170 173 165 177
165 165 167 164 176 170 168 155 169 155 169 165 172 168 158 180 174 172 164 171 157 159 169 162 165 159 166 163 160 167 171 171 165 167 175 171 168 166 164 164 167 167 176 176 173
164 170 171 172 164 164 158 156 165 176 156 158 160 172 156 167 168 163 175 173 164 173 164 162 170 164 165 155 154 160 170 169 169 175 174 167 176 173 166 167 168 170 174 169 178
165 162 172 165 160 164 163 166 159 163 156 161 168 160 162 174 169 177 176 173 177 169 170 171 161 168 160 166 174 173 174 171 172 175 171 175 179 175 163 169 175 169 171 170 168
160 174 171 174 170 158 179 179 169 160 175 181 161 183 164 167 171 174 172 168 175 163 175 173 178 170 170 168 174 175 182 181 185 170 161 170 179 164 166 168 172 175 181 185 182
171 174 162 165 171 174 180 182 182 172 175 173 175 174 190 187 176 183 189 161 166 179 168 186 165 170 175 180 180 180 178 181 179 177 180 181 180 182 180 180 183 182 181 182 185
171 174 169 167 174 170 171 166 177 179 173 169 182 187 197 202 179 181 195 187 180 177 184 165 177 173 174 176 172 170 175 181 179 172 175 183 190 183 186 178 176 184 184 178 179
181 164 178 173 174 157 171 180 170 172 272 258 248 246 249 253 255 257 263 263 206 192 189 186 176 178 184 179 174 178 177 177 180 175 178 187 183 189 183 183 172 170 169 175 171
168 178 176 185 176 170 165 191 199 206 256 232 230 223 196 208 269 230 219 220 232 207 206 205 197 194 192 191 191 177 188 191 182 190 201 185 182 187 174 188 173 185 186 191 210
169 184 174 168 188 165 172 188 213 229 236 215 201 206 296 310 321 328 336 336 209 228 237 253 210 190 195 192 192 198 192 188 199 191 178 195 180 189 185 189 183 193 195 221 211
163 177 191 179 192 158 180 199 228 252 211 222 202 246 223 295 304 236 202 297 325 246 217 201 252 208 202 198 196 192 192 207 200 191 167 165 185 174 181 189 188 198 225 205 198
172 183 180 164 193 174 184 189 220 235 195 218 228 211 210 271 286 294 302 292 241 317 220 217 214 193 244 214 196 198 200 200 200 187 187 191 196 191 188 195 200 220 208 182 171
173 176 151 173 178 178 189 192 213 197 195 215 210 187 210 249 259 278 286 297 279 196 216 217 217 217 239 132 213 208 208 172 192 198 161 166 180 168 193 189 204 207 178 167 168
184 182 183 164 160 189 202 209 213 193 194 200 199 230 207 221 221 220 274 285 293 208 198 154 205 202 202 141 218 198 198 188 139 156 200 157 170 195 165 178 140 196 169 166 175
186 185 185 189 159 190 201 200 213 192 193 211 201 228 203 214 217 216 261 263 276 272 116 209 205 203 200 196 196 201 141 152 178 182 131 179 134 217 207 144 167 152 154 177 173
185 189 180 198 168 188 189 202 211 199 197 199 210 200 209 203 207 210 210 133 151 158 120 177 209 162 194 130 123 155 179 135 138 122 141 165 177 200 150 146 173 165 176 176 191
185 191 169 190 174 190 191 201 208 203 190 200 209 203 167 199 202 206 175 207 207 180 166 182 194 136 198 171 133 171 162 184 171 124 181 138 163 143 167 149 178 182 177 184 177
184 188 181 198 186 188 189 192 202 203 184 193 193 209 208 201 199 168 204 203 206 209 207 198 140 192 140 165 118 140 132 123 204 155 126 166 208 136 177 189 180 150 186 184 199
183 192 193 200 194 202 187 201 201 201 188 187 193 198 209 208 190 196 199 196 159 155 191 164 177 142 119 145 199 135 112 213 135 216 120 165 193 157 133 193 150 159 189 222 220
191 184 188 188 186 197 185 190 200 200 187 188 190 191 198 208 193 175 182 200 196 145 129 159 171 133 131 210 209 129 142 181 145 201 170 174 185 184 152 187 191 186 262 267 294
188 183 190 185 148 188 168 161 192 171 189 192 187 189 152 194 197 203 203 197 201 196 138 155 178 178 213 196 141 130 108 167 128 204 164 179 123 181 169 140 242 254 271 295 292
197 171 171 177 177 186 206 183 192 193 184 192 191 187 194 140 173 180 199 204 167 185 106 139 205 208 158 130 164 202 206 147 184 202 193 196 191 77 235 143 143 287 297 320 331
200 205 172 172 183 194 188 182 138 186 194 192 192 192 193 143 164 145 145 178 139 134 139 176 157 119 151 145 207 195 164 195 187 123 192 179 151 98 132 177 283 303 282 325 329
208 204 205 211 190 218 220 186 185 160 191 201 180 190 187 160 149 140 138 145 181 149 121 149 173 167 141 131 200 200 139 205 201 197 182 161 189 148 201 283 297 308 337 318 323
195 207 203 212 217 206 195 176 181 206 197 192 196 194 197 142 196 184 177 143 178 146 157 180 198 192 122 189 175 211 204 207 198 188 157 226 198 137 206 203 290 308 339 307 347
207 208 193 198 213 205 226 220 184 184 189 196 196 194 195 194 135 196 199 141 134 154 185 108 156 126 144 184 207 196 221 207 194 191 234 268 259 252 266 272 297 304 327 337 358
213 214 205 208 218 206 207 211 220 205 192 197 189 167 193 196 138 135 150 132 139 148 204 192 168 147 208 132 207 209 198 205 197 255 249 186 233 266 294 296 290 325 334 340 358
Wind_Speed
21 21 24 23 26 25 28 33 34 30 33 32 36 37 41 42 41 39 40 44 43 40 40 38 38 38 38 37 38 40 42 41 43 42 44 42 45 46 44 40 42 47 47 56 50
29 29 29 30 27 31 34 35 36 37 39 40 39 42 39 42 44 44 47 44 42 45 41 42 41 40 40 40 40 41 42 45 45 47 51 48 47 46 44 44 46 46 52 56 58
30 29 31 32 35 37 37 35 40 41 42 41 41 47 42 48 47 48 46 47 49 47 46 44 44 43 43 40 40 41 45 46 46 50 50 47 52 54 50 53 54 55 58 58 64
34 33 35 37 36 37 40 44 41 45 38 44 49 43 46 51 51 52 50 48 47 47 48 48 42 45 44 47 47 45 46 45 48 51 50 52 54 54 48 52 57 58 62 61 59
36 38 38 40 42 40 43 44 45 43 49 50 43 51 47 49 48 49 49 46 47 39 46 46 48 44 45 46 47 47 49 49 49 48 48 53 55 47 51 56 58 63 67 68 67
42 42 35 40 42 42 43 46 49 48 48 47 49 48 53 52 47 50 54 41 43 47 44 50 42 45 46 48 47 45 45 47 48 50 53 57 56 57 57 61 63 65 68 68 70
46 46 44 44 44 43 44 45 49 48 45 41 50 50 53 56 49 49 52 53 51 48 52 41 47 43 43 44 42 41 45 48 48 49 52 59 59 57 59 60 62 67 68 66 68
47 43 47 44 45 35 46 51 41 44 45 39 43 48 49 50 50 51 53 57 56 52 52 51 44 45 50 46 44 47 46 47 49 49 52 57 57 56 57 59 59 60 64 66 64
47 48 48 48 49 44 41 52 47 48 38 41 42 43 43 44 34 41 50 53 54 51 54 55 54 53 49 51 52 45 50 49 46 50 53 51 61 58 50 59 60 63 66 69 69
49 48 47 46 48 32 47 49 47 44 36 39 40 40 35 30 25 20 17 17 43 51 53 53 53 45 48 48 49 52 50 48 51 47 50 50 59 59 53 56 60 67 70 65 68
46 48 45 51 47 36 51 47 43 41 35 35 37 34 33 31 28 28 35 21 20 38 44 41 49 49 48 47 48 48 49 56 50 47 43 44 60 54 58 62 65 69 65 68 73
54 51 47 46 45 46 46 44 39 37 34 33 34 30 32 30 27 25 22 20 28 22 39 39 42 40 45 47 46 48 50 50 50 48 51 55 60 60 61 66 69 62 64 67 59
56 48 30 49 41 46 43 44 38 29 33 32 30 24 30 23 24 22 20 18 20 34 31 34 37 39 39 18 45 46 48 38 49 49 32 38 52 46 65 57 59 64 65 54 53
59 53 47 48 34 47 42 45 39 35 35 28 27 29 27 25 22 22 19 16 16 32 34 19 33 34 35 25 42 35 45 37 24 30 55 27 53 67 41 47 41 65 60 60 66
59 53 50 50 34 47 42 45 41 36 34 31 27 29 25 23 22 21 20 15 14 17 11 32 32 34 35 37 39 43 25 32 41 46 35 45 38 62 62 39 51 47 50 72 70
60 55 51 51 47 48 48 41 42 36 35 31 29 24 24 24 22 23 23 18 28 26 13 28 35 28 34 24 23 27 40 33 32 35 36 45 50 60 44 39 52 64 73 73 93
63 57 50 51 50 48 47 43 39 37 35 34 31 28 25 25 24 25 27 26 25 22 28 30 33 23 37 36 33 40 36 43 45 39 48 40 49 41 51 37 63 71 70 83 67
66 60 54 56 51 49 49 46 41 38 35 35 33 32 30 29 27 29 27 27 27 29 31 32 21 38 30 34 22 35 37 39 48 36 46 48 59 47 64 67 73 50 82 74 94
65 65 59 57 51 50 50 46 43 41 38 35 37 36 34 34 34 31 31 30 33 33 34 30 35 31 23 29 47 36 23 51 44 50 47 49 58 59 47 75 51 60 83 98 92
72 60 59 55 52 52 52 49 46 45 40 39 37 38 38 36 33 35 34 37 36 31 27 30 37 29 31 47 48 26 42 47 33 52 51 48 59 68 60 69 83 77 97 94 95
69 61 64 57 45 53 46 45 50 42 46 45 41 40 34 41 39 38 37 36 37 36 37 34 37 41 45 47 38 39 17 38 45 57 44 54 53 64 68 59 97 93 96 92 93
86 56 57 55 56 57 57 54 54 52 48 49 47 45 44 37 40 41 43 42 38 41 23 36 48 52 37 44 49 54 56 39 52 58 60 60 68 11 90 58 58 93 92 91 91
86 90 57 56 58 61 56 57 42 56 56 53 51 51 49 35 42 35 35 43 34 37 39 44 39 22 44 38 55 55 48 57 56 45 64 71 53 26 57 63 95 93 91 88 86
90 86 83 86 66 80 73 60 59 48 60 58 53 55 55 42 36 34 34 39 47 39 27 40 46 44 40 38 56 59 47 64 64 63 57 56 73 50 78 94 94 91 89 85 85
77 89 84 87 85 73 64 59 62 66 64 62 61 59 62 41 57 53 50 39 49 39 43 52 57 52 27 57 52 66 61 65 64 68 57 87 74 59 73 75 94 92 88 84 84
88 91 73 76 87 73 79 79 67 61 65 67 64 60 67 62 36 61 60 40 33 41 54 28 44 41 44 58 64 61 80 69 69 73 87 95 90 93 92 95 97 93 86 84 81
91 94 90 90 89 76 76 79 77 70 69 64 64 52 67 66 40 36 41 33 38 42 66 60 48 46 67 43 65 69 64 71 71 95 95 74 89 94 99 95 95 92 86 82 76
Wind_Direction
248 250 252 256 251 252 245 255 252 249 249 248 249 245 250 253 256 249 241 249 256 246 251 252 249 252 253 255 258 262 264 265 265 265 264 268 270 268 269 261 261 255 257 254 257
248 250 249 251 254 257 247 269 249 269 250 254 248 250 269 250 247 244 250 246 263 261 250 250 253 256 255 256 258 261 263 263 266 269 267 269 270 270 269 269 267 262 271 272 270
259 257 256 255 254 254 268 273 260 257 276 276 277 253 287 261 259 263 250 248 255 250 254 258 252 256 257 265 268 264 261 263 264 264 263 265 262 264 270 273 273 274 272 268 272
259 267 263 265 271 267 266 262 269 266 279 274 266 277 274 261 264 259 258 255 252 255 254 255 262 256 262 262 263 264 266 266 268 267 268 268 266 264 268 268 266 268 267 268 272
278 266 270 269 269 279 272 271 270 279 270 269 279 269 274 273 269 267 266 266 260 261 258 258 256 261 261 264 264 265 266 266 267 267 270 268 268 271 271 272 271 270 268 268 267
272 269 273 277 275 276 275 274 272 276 276 276 275 278 274 272 270 268 265 265 265 262 261 259 265 263 263 263 265 266 265 266 265 266 267 268 268 270 271 271 269 269 271 272 270
272 270 275 278 274 276 275 277 278 283 283 283 283 282 279 274 269 267 265 264 263 265 262 258 262 261 263 264 263 262 267 267 266 265 267 267 267 268 267 269 272 271 271 271 270
267 277 274 276 277 280 277 278 289 287 299 289 285 282 279 275 271 266 260 257 260 262 261 259 260 263 264 263 262 264 264 264 264 265 268 269 270 267 267 270 271 272 274 274 273
270 271 274 275 276 281 286 279 286 287 295 288 287 285 280 279 287 274 266 264 260 260 259 257 258 260 263 264 265 262 266 266 263 268 269 270 273 271 273 272 275 275 275 276 275
271 270 274 277 275 280 285 286 293 296 293 288 286 286 320 328 328 324 310 288 263 258 255 251 256 260 261 262 263 265 266 266 269 268 271 271 273 277 275 274 277 277 278 275 274
273 270 280 273 277 269 282 288 303 309 289 293 288 305 290 329 331 286 270 291 281 259 256 256 251 258 260 260 262 264 266 268 268 270 271 273 274 277 279 278 280 278 277 275 276
269 271 271 277 279 279 285 289 299 304 288 298 306 291 289 327 330 326 320 294 266 275 251 253 254 256 256 257 261 264 266 268 270 273 273 276 276 277 280 279 279 280 273 281 292
268 273 253 273 277 279 285 287 295 288 288 298 296 283 293 317 319 322 320 309 280 255 249 251 254 258 256 276 261 263 266 272 273 273 281 284 282 283 281 282 283 279 285 298 296
265 270 271 273 259 279 286 289 291 282 286 289 286 305 290 295 286 282 319 314 297 252 254 241 255 257 260 266 265 270 270 270 272 273 277 270 281 279 292 286 285 279 298 299 302
263 266 268 273 268 280 285 287 289 278 284 292 284 306 286 291 291 280 316 304 289 266 220 257 258 260 264 267 269 271 270 294 281 280 289 286 284 281 283 289 306 290 294 299 308
260 263 262 270 270 275 277 285 287 280 282 284 286 277 288 282 281 280 272 263 249 249 240 267 266 270 270 266 300 275 280 288 285 309 281 286 286 279 295 297 296 294 297 302 290
259 258 261 263 264 271 274 281 282 277 277 281 284 277 265 275 278 276 259 274 269 260 263 269 271 283 273 271 275 279 273 277 284 302 293 294 291 292 288 302 294 293 296 295 310
257 258 257 264 262 266 267 272 275 274 269 275 277 281 277 268 264 256 272 274 277 276 274 273 271 277 261 276 312 268 280 293 282 303 301 299 287 305 289 287 283 301 297 308 298
256 258 259 260 261 264 262 267 270 269 265 268 275 277 280 278 268 266 265 265 261 263 271 273 277 262 301 287 279 272 320 287 284 288 312 296 287 298 303 288 302 302 301 298 305
252 252 254 254 256 261 259 262 266 267 264 263 266 270 275 277 275 259 264 273 269 268 274 274 269 271 274 283 285 298 270 292 277 289 292 291 289 295 307 302 298 307 305 308 311
250 249 253 250 242 255 251 253 261 256 262 264 261 263 259 271 271 275 273 273 276 277 265 276 274 275 285 283 268 293 299 292 291 293 283 287 318 306 306 306 305 304 308 313 312
253 242 246 249 250 254 259 254 258 262 259 262 264 263 266 257 262 265 273 275 270 274 259 270 280 285 283 280 282 293 293 293 289 293 288 298 287 261 307 305 309 315 318 317 318
251 254 242 246 249 252 251 252 244 258 261 260 261 265 265 257 261 255 253 268 267 266 263 280 277 278 280 273 291 293 296 294 289 303 295 297 293 289 309 311 317 319 315 320 320
248 252 256 258 254 261 261 250 253 248 258 261 260 261 264 261 260 256 258 258 272 264 273 270 278 286 275 281 294 295 276 293 293 292 297 299 310 315 306 318 320 321 322 320 319
247 251 256 259 260 257 251 249 254 260 256 258 259 263 265 251 267 268 267 259 271 260 267 280 285 287 285 288 286 296 291 291 286 287 307 307 305 302 311 313 320 323 323 319 321
246 248 248 252 257 257 263 265 251 254 257 258 259 261 264 267 254 269 271 259 261 267 278 270 283 273 279 290 297 293 300 295 291 293 310 312 313 313 317 319 321 321 323 322 322
244 246 250 253 256 256 259 261 262 260 257 261 260 258 265 268 256 259 262 257 268 271 283 282 277 277 290 286 296 297 290 293 292 307 307 300 307 315 319 320 319 320 322 322 322